When you browse on this site, cookies collect data to enhance your experience and personalize the content and advertising you see.
Visit our Privacy Policy to learn more. By continuing to use the site, you agree to this use of cookies and data.
  • In Hungary
  • List of Countries
  • For 7 days
  • Water Temperature
  • Weather Map
  • News
  • Weather Widgets
  • user-avatar
    Login

    Hourly Weather Reutlingen

    Today, 31 March, Tuesday

    Time Temperature Precipitation Wind Pressure Humidity
    00:00 -1°C° 0 mm 1 mps 730 mmHg 59%
    01:00 -1°C° 0 mm 1 mps 730 mmHg 57%
    02:00 -1°C° 0 mm 1 mps 730 mmHg 58%
    03:00 -1°C° 0 mm 1 mps 730 mmHg 58%
    04:00 -1°C° 0 mm 1 mps 729 mmHg 58%
    05:00 -1°C° 0 mm 1 mps 730 mmHg 59%
    06:00 -1°C° 0 mm 1 mps 730 mmHg 60%
    07:00 0°C° 0 mm 1 mps 731 mmHg 57%
    08:00 +1°C° 0 mm 2 mps 731 mmHg 57%
    09:00 +3°C° 0 mm 2 mps 731 mmHg 57%
    10:00 +3°C° 0 mm 3 mps 731 mmHg 58%
    11:00 +4°C° 0 mm 3 mps 731 mmHg 54%
    12:00 +5°C° 0 mm 4 mps 730 mmHg 51%
    13:00 +6°C° 0 mm 4 mps 730 mmHg 47%
    14:00 +7°C° 0 mm 3 mps 730 mmHg 47%
    15:00 +7°C° 0 mm 3 mps 730 mmHg 47%
    16:00 +7°C° 0 mm 3 mps 729 mmHg 46%
    17:00 +4°C° 0 mm 3 mps 730 mmHg 53%
    18:00 +2°C° 0 mm 3 mps 730 mmHg 60%
    19:00 +2°C° 0 mm 2 mps 730 mmHg 68%
    20:00 +1°C° 0 mm 2 mps 730 mmHg 68%
    21:00 -1°C° 0 mm 2 mps 730 mmHg 69%
    22:00 -2°C° 0 mm 3 mps 730 mmHg 70%
    23:00 -2°C° 0 mm 2 mps 730 mmHg 71%

    Tomorrow, 1 April, Wednesday

    Time Temperature Precipitation Wind Pressure Humidity
    00:00 -3°C° 0 mm 2 mps 730 mmHg 72%
    01:00 -3°C° 0 mm 2 mps 729 mmHg 73%
    02:00 -1°C° 0 mm 1 mps 729 mmHg 73%
    03:00 -1°C° 0 mm 1 mps 729 mmHg 74%
    04:00 -2°C° 0 mm 1 mps 728 mmHg 75%
    05:00 -1°C° 0 mm 1 mps 728 mmHg 74%
    06:00 -1°C° 0 mm 1 mps 728 mmHg 72%
    07:00 0°C° 0 mm 1 mps 728 mmHg 70%
    08:00 +2°C° 0 mm 1 mps 728 mmHg 62%
    09:00 +4°C° 0 mm 1 mps 727 mmHg 54%
    10:00 +6°C° 0 mm 1 mps 727 mmHg 46%
    11:00 +8°C° 0 mm 1 mps 727 mmHg 43%
    12:00 +9°C° 0 mm 1 mps 726 mmHg 40%
    13:00 +10°C° 0 mm 1 mps 726 mmHg 38%
    14:00 +10°C° 0 mm 1 mps 725 mmHg 39%
    15:00 +10°C° 0 mm 1 mps 725 mmHg 40%
    16:00 +10°C° 0 mm 1 mps 724 mmHg 41%
    17:00 +8°C° 0 mm 1 mps 724 mmHg 49%
    18:00 +6°C° 0 mm 1 mps 724 mmHg 57%
    19:00 +4°C° 0 mm 1 mps 724 mmHg 64%
    20:00 +3°C° 0 mm 1 mps 724 mmHg 66%
    21:00 +2°C° 0 mm 0 mps 724 mmHg 67%
    22:00 +1°C° 0 mm 0 mps 724 mmHg 69%
    23:00 +1°C° 0 mm 0 mps 724 mmHg 70%

    Day after tomorrow, 2 April, Thursday

    Time Temperature Precipitation Wind Pressure Humidity
    00:00 0°C° 0 mm 0 mps 724 mmHg 70%
    01:00 +1°C° 0 mm 1 mps 724 mmHg 71%
    02:00 +1°C° 0 mm 1 mps 723 mmHg 71%
    03:00 +1°C° 0 mm 1 mps 723 mmHg 72%
    04:00 0°C° 0 mm 0 mps 723 mmHg 72%
    05:00 0°C° 0 mm 0 mps 723 mmHg 71%
    06:00 +1°C° 0 mm 0 mps 723 mmHg 69%
    07:00 +1°C° 0 mm 0 mps 723 mmHg 68%
    08:00 +3°C° 0 mm 0 mps 723 mmHg 62%
    09:00 +7°C° 0 mm 1 mps 723 mmHg 56%
    10:00 +9°C° 0 mm 1 mps 723 mmHg 50%
    11:00 +10°C° 0 mm 1 mps 722 mmHg 48%
    12:00 +11°C° 0 mm 1 mps 722 mmHg 46%
    13:00 +12°C° 0 mm 2 mps 722 mmHg 44%
    14:00 +12°C° 0 mm 2 mps 722 mmHg 46%
    15:00 +12°C° 0 mm 2 mps 721 mmHg 47%
    16:00 +11°C° 0 mm 3 mps 720 mmHg 49%
    17:00 +9°C° 0 mm 2 mps 721 mmHg 56%
    18:00 +6°C° 0 mm 2 mps 721 mmHg 64%
    19:00 +5°C° 0 mm 1 mps 721 mmHg 71%
    20:00 +5°C° 0 mm 1 mps 721 mmHg 73%
    21:00 +4°C° 0 mm 1 mps 722 mmHg 75%
    22:00 +2°C° 0 mm 2 mps 722 mmHg 78%
    23:00 +3°C° 0 mm 1 mps 723 mmHg 81%

    3 April, Friday

    Time Temperature Precipitation Wind Pressure Humidity
    00:00 +2°C° 0 mm 1 mps 723 mmHg 84%
    01:00 +2°C° 0 mm 1 mps 723 mmHg 87%
    02:00 +2°C° 0 mm 1 mps 723 mmHg 88%
    03:00 +2°C° 0 mm 1 mps 723 mmHg 88%
    04:00 +1°C° 0 mm 1 mps 723 mmHg 88%
    05:00 +2°C° 0 mm 1 mps 723 mmHg 87%
    06:00 +2°C° 0 mm 1 mps 724 mmHg 86%
    07:00 +2°C° 0 mm 1 mps 724 mmHg 85%
    08:00 +4°C° 0 mm 1 mps 724 mmHg 77%
    09:00 +5°C° 0 mm 2 mps 724 mmHg 68%
    10:00 +7°C° 0 mm 2 mps 725 mmHg 59%
    11:00 +8°C° 0 mm 2 mps 725 mmHg 58%
    12:00 +9°C° 0 mm 2 mps 725 mmHg 57%
    13:00 +10°C° 0 mm 1 mps 725 mmHg 55%
    14:00 +10°C° 0 mm 1 mps 725 mmHg 56%
    15:00 +10°C° 0 mm 1 mps 725 mmHg 57%
    16:00 +10°C° 0 mm 1 mps 725 mmHg 58%
    17:00 +9°C° 0 mm 1 mps 725 mmHg 63%
    18:00 +8°C° 0 mm 1 mps 725 mmHg 69%
    19:00 +5°C° 0 mm 0 mps 725 mmHg 74%
    20:00 +5°C° 0 mm 0 mps 726 mmHg 76%
    21:00 +4°C° 0 mm 0 mps 726 mmHg 78%
    22:00 +4°C° 0 mm 0 mps 727 mmHg 79%
    23:00 +3°C° 0 mm 0 mps 727 mmHg 80%

    4 April, Saturday

    Time Temperature Precipitation Wind Pressure Humidity
    00:00 +4°C° 0 mm 1 mps 727 mmHg 82%
    01:00 +3°C° 0 mm 1 mps 727 mmHg 83%
    02:00 +3°C° 0 mm 1 mps 727 mmHg 83%
    03:00 +3°C° 0 mm 1 mps 727 mmHg 84%
    04:00 +3°C° 0 mm 1 mps 727 mmHg 85%
    05:00 +3°C° 0 mm 1 mps 728 mmHg 83%
    06:00 +4°C° 0 mm 1 mps 728 mmHg 82%
    07:00 +3°C° 0 mm 0 mps 729 mmHg 81%
    08:00 +6°C° 0 mm 1 mps 728 mmHg 74%
    09:00 +7°C° 0 mm 2 mps 728 mmHg 67%
    10:00 +9°C° 0 mm 2 mps 728 mmHg 60%
    11:00 +10°C° 0 mm 2 mps 728 mmHg 58%
    12:00 +11°C° 0 mm 3 mps 728 mmHg 55%
    13:00 +12°C° 0 mm 3 mps 728 mmHg 53%
    14:00 +13°C° 0 mm 3 mps 728 mmHg 54%
    15:00 +13°C° 0 mm 3 mps 727 mmHg 55%
    16:00 +13°C° 0 mm 3 mps 727 mmHg 56%
    17:00 +11°C° 0 mm 3 mps 727 mmHg 64%
    18:00 +9°C° 0 mm 3 mps 727 mmHg 72%
    19:00 +7°C° 0 mm 2 mps 727 mmHg 80%
    20:00 +7°C° 0 mm 2 mps 727 mmHg 81%
    21:00 +6°C° 0 mm 2 mps 728 mmHg 82%
    22:00 +5°C° 0 mm 2 mps 728 mmHg 82%
    23:00 +5°C° 0 mm 2 mps 728 mmHg 84%

    5 April, Sunday

    Time Temperature Precipitation Wind Pressure Humidity
    00:00 +5°C° 0 mm 1 mps 728 mmHg 86%
    01:00 +5°C° 0 mm 1 mps 728 mmHg 88%
    02:00 +4°C° 0 mm 1 mps 728 mmHg 88%
    03:00 +4°C° 0 mm 1 mps 728 mmHg 89%
    04:00 +4°C° 0 mm 1 mps 728 mmHg 89%
    05:00 +4°C° 0 mm 1 mps 728 mmHg 88%
    06:00 +5°C° 0 mm 1 mps 728 mmHg 86%
    07:00 +5°C° 0 mm 1 mps 728 mmHg 85%
    08:00 +8°C° 0 mm 1 mps 728 mmHg 77%
    09:00 +11°C° 0 mm 1 mps 728 mmHg 69%
    10:00 +14°C° 0 mm 1 mps 728 mmHg 61%
    11:00 +15°C° 0 mm 1 mps 727 mmHg 58%
    12:00 +16°C° 0 mm 1 mps 727 mmHg 54%
    13:00 +17°C° 0 mm 2 mps 727 mmHg 51%
    14:00 +17°C° 0 mm 2 mps 726 mmHg 52%
    15:00 +17°C° 0 mm 3 mps 726 mmHg 52%
    16:00 +17°C° 0 mm 3 mps 725 mmHg 53%
    17:00 +14°C° 0 mm 3 mps 725 mmHg 62%
    18:00 +13°C° 0 mm 2 mps 724 mmHg 71%
    19:00 +10°C° 0 mm 2 mps 724 mmHg 80%
    20:00 +9°C° 0 mm 2 mps 724 mmHg 82%
    21:00 +10°C° 0 mm 1 mps 724 mmHg 84%
    22:00 +9°C° 0 mm 1 mps 724 mmHg 85%
    23:00 +8°C° 0 mm 1 mps 724 mmHg 86%
    Show more